#timestamp,LO_Frequency,Hit,StdDev 
1620903615.3,286046998.6,N
1620903635.1,286047000.8,N
1620903655.9,286046996.5,N
1620903675.7,286046996.8,N
1620903695.6,286046997.9,N
1620903715.4,286046997.6,N
1620903735.2,286046995.5,N
1620903755.1,286046997.5,N
1620903756.0,286046997.5,N
1620903775.8,286046998.9,N
1620903795.6,286046999.6,N
1620903815.5,286046999.3,N
1620903835.3,286046998.0,N
1620903855.2,286046995.9,N
1620903875.9,286046996.3,N
1620903895.7,286046997.4,N
1620903915.6,286046998.6,N
1620903935.4,286047000.2,N
1620903955.2,286047001.1,N
1620903975.1,286046998.3,N
1620903976.0,286046998.3,N
1620903995.8,286047001.2,N
1620904015.7,286046999.0,N
1620904035.5,286046996.8,N
1620904055.3,286047000.7,N
1620904075.2,286046999.0,N
1620904095.0,286046997.2,N
1620904095.9,286046997.2,N
1620904115.8,286046998.6,N
1620904135.6,286046996.7,N
1620904155.4,286047001.2,N
1620904175.3,286047000.6,N
1620904195.1,286047004.4,N
1620904215.8,286047000.1,N
1620904235.7,286047001.4,N
1620904255.5,286046999.7,N
1620904275.4,286046999.1,N
1620904295.2,286047000.4,N
1620904315.0,286047002.6,N
1620904315.9,286047002.6,N
1620904335.8,286046999.9,N
1620904355.6,286046999.3,N
1620904375.4,286046999.0,N
1620904395.3,286047001.2,N
1620904415.1,286046998.8,N
1620904435.9,286046997.0,N
1620904455.7,286047000.6,N
1620904475.5,286047000.6,N
1620904495.4,286047001.9,N
1620904515.2,286047000.7,N
1620904535.0,286047001.2,N
1620904535.9,286047001.2,N
1620904555.8,286046999.7,N
1620904575.6,286047004.3,N
1620904595.5,286047003.9,N
1620904615.3,286047003.9,N
1620904635.1,286047001.7,N
1620904655.9,286047000.3,N
1620904675.7,286046998.3,N
1620904695.5,286046999.9,N
1620904715.4,286047001.5,N
1620904735.2,286047003.5,N
1620904755.1,286047004.0,N
1620904756.0,286047004.0,N
1620904775.8,286047002.1,N
1620904795.6,286047001.9,N
1620904815.5,286046999.9,N
1620904835.3,286046999.5,N
1620904855.1,286046996.7,N
1620904875.9,286046995.3,N
1620904895.7,286046995.5,N
1620904915.6,286046997.8,N
1620904935.4,286046998.5,N
1620904955.2,286046999.1,N
1620904975.1,286046997.3,N
1620904976.0,286046997.3,N
1620904995.8,286046997.9,N
1620905015.6,286046999.4,N
1620905035.5,286047001.2,N
1620905055.3,286047002.2,N
1620905075.2,286047000.4,N
1620905095.9,286046998.1,N
1620905115.7,286047002.2,N
1620905135.6,286047001.7,N
1620905155.4,286047003.1,N
1620905175.2,286047000.1,N
1620905195.1,286047002.3,N
1620905196.0,286047002.3,N
1620905215.8,286047002.5,N
1620905235.7,286047000.1,N
1620905255.5,286047002.5,N
1620905275.3,286047004.2,N
1620905295.2,286047001.4,N
1620905315.0,286047002.8,N
1620905315.9,286047002.8,N
1620905335.8,286046999.7,N
1620905355.6,286047003.9,N
1620905375.4,286047003.4,N
1620905395.3,286047002.5,N
1620905415.1,286047000.1,N
1620905435.9,286047001.5,N
1620905455.7,286047002.8,N
1620905475.5,286047002.3,N
1620905495.4,286047002.2,N
1620905515.2,286047000.2,N
1620905535.0,286047000.4,N
1620905535.9,286047000.4,N
1620905555.8,286046999.8,N
1620905575.6,286047004.0,N
1620905595.5,286047002.9,N
1620905615.3,286047005.6,Y
1620905635.1,286047002.4,P
1620905655.9,286047000.4,N
1620905675.7,286047002.7,P
1620905695.6,286047002.9,Y
1620905715.4,286047001.7,P
1620905735.2,286047002.2,P
1620905755.1,286047004.4,P
1620905756.0,286047004.4,Y
1620905775.8,286046996.6,P
1620905795.7,286046995.0,N
1620905815.5,286046995.1,N
1620905835.3,286046997.4,N
1620905855.2,286046995.4,N
1620905875.9,286046997.4,N
1620905895.7,286046997.7,N
1620905915.6,286046997.8,N
1620905935.4,286046998.7,N
1620905955.3,286046998.4,N
1620905975.1,286047000.8,N
1620905976.0,286047000.8,N
1620905995.8,286046998.7,N
1620906015.7,286046997.1,N
1620906035.5,286046999.0,N
1620906055.3,286046999.6,N
1620906075.2,286046997.6,N
1620906095.0,286046993.6,Y
1620906095.9,286046993.6,P
1620906115.8,286046995.3,N
1620906135.6,286046995.9,N
1620906155.4,286046996.2,N
1620906175.3,286046997.5,N
1620906195.1,286046996.9,N
1620906215.8,286046998.9,N
1620906235.7,286046999.2,N
1620906255.5,286046999.1,N
1620906275.4,286046995.4,N
1620906295.2,286046995.9,N
1620906315.0,286046997.7,N
1620906315.9,286046997.7,N
1620906335.8,286046998.4,N
1620906355.6,286046998.6,N
1620906375.4,286047000.8,N
1620906395.3,286047000.9,N
1620906415.1,286046998.7,N
1620906435.9,286046998.1,N
1620906455.7,286047000.9,N
1620906475.5,286047002.2,N
1620906495.4,286047000.0,N
1620906515.2,286046999.9,N
1620906535.1,286047002.8,N
1620906536.0,286047002.8,N
1620906555.8,286046998.6,N
1620906575.6,286046999.7,N
1620906595.5,286046999.7,N
1620906615.3,286046998.9,N
1620906635.2,286047001.1,N
1620906655.9,286046998.1,N
1620906675.7,286047000.6,N
1620906695.6,286046998.7,N
1620906715.4,286047000.5,N
1620906735.3,286047000.3,N
1620906755.1,286046999.8,N
1620906756.0,286046999.8,N
1620906775.8,286047002.6,N
1620906795.7,286047001.5,N
1620906815.5,286047002.3,N
1620906835.3,286047001.7,N
1620906855.2,286047001.1,N
1620906875.0,286046998.4,N
1620906875.9,286046998.4,N
1620906895.8,286046998.3,N
1620906915.6,286046998.6,N
1620906935.4,286046998.8,N
1620906955.3,286046998.3,N
1620906975.1,286046998.5,N
1620906995.8,286046999.9,N
1620907015.7,286046997.2,N
1620907035.5,286046995.0,Y
1620907055.4,286046997.1,P
1620907075.2,286046997.6,N
1620907095.0,286046996.7,N
1620907095.9,286046996.7,N
1620907115.8,286046998.6,N
1620907135.6,286047000.9,N
1620907155.5,286047000.5,N
1620907175.3,286046999.7,N
1620907195.1,286046998.5,N
